SPACEMOBILE-005

Last updated on Sat Aug 15 2026 00:02:08 GMT+0000 (Coordinated Universal Time)

1 61046U 24163B 26226.49550966 .00005176 00000+0 24688-3 0 9994 2 61046 52.9770 41.2877 0007395 302.0501 57.9774 15.20707421106637
UTC large
Height (km)
Speed (km/s)
/
Latitude / Longitude
Inclination (degrees)
Orbital Period (minutes)
Azimuth
Elevation
Range (km)
Doppler Factor

Next 0 passes for location: London (51.5072 / 0.1276)

No passes found over London.
SPACEMOBILE-005